When you browse on this site, cookies collect data to enhance your experience and personalize the content and advertising you see.
Visit our Privacy Policy to learn more. By continuing to use the site, you agree to this use of cookies and data.
  • In Österreich
  • Länderverzeichnis
  • Für 7 Tage
  • Wassertemperatur
  • Wetterkarte
  • News
  • Widgets
  • user-avatar
    Anmelden

    Stündliche Wetter Sofia

    Heute, 3 Juni, Mittwoch

    Zeit Temperatur Niederschläge Wind Luftdruck Luftfeuchtigkeit
    00:00 +8°C° 0 mm 1 m/S 705 mmHg 88%
    01:00 +8°C° 0 mm 1 m/S 705 mmHg 88%
    02:00 +7°C° 0 mm 1 m/S 705 mmHg 87%
    03:00 +7°C° 0 mm 1 m/S 705 mmHg 88%
    04:00 +7°C° 0 mm 1 m/S 705 mmHg 88%
    05:00 +6°C° 0 mm 1 m/S 705 mmHg 89%
    06:00 +8°C° 0 mm 1 m/S 705 mmHg 85%
    07:00 +10°C° 0 mm 1 m/S 705 mmHg 81%
    08:00 +13°C° 0 mm 1 m/S 706 mmHg 75%
    09:00 +14°C° 0.1 mm 2 m/S 706 mmHg 68%
    10:00 +16°C° 0.1 mm 2 m/S 705 mmHg 60%
    11:00 +17°C° 0.1 mm 3 m/S 705 mmHg 52%
    12:00 +17°C° 0.1 mm 3 m/S 705 mmHg 51%
    13:00 +18°C° 0.1 mm 3 m/S 705 mmHg 50%
    14:00 +18°C° 0.1 mm 3 m/S 705 mmHg 48%
    15:00 +18°C° 0.1 mm 3 m/S 705 mmHg 51%
    16:00 +18°C° 0.1 mm 3 m/S 705 mmHg 53%
    17:00 +18°C° 0.1 mm 3 m/S 704 mmHg 55%
    18:00 +16°C° 0.1 mm 2 m/S 704 mmHg 62%
    19:00 +15°C° 0.1 mm 2 m/S 704 mmHg 69%
    20:00 +13°C° 0.1 mm 1 m/S 704 mmHg 77%
    21:00 +12°C° 0 mm 1 m/S 704 mmHg 78%
    22:00 +12°C° 0 mm 1 m/S 704 mmHg 80%
    23:00 +11°C° 0 mm 1 m/S 705 mmHg 82%

    Morgen, 4 Juni, Donnerstag

    Zeit Temperatur Niederschläge Wind Luftdruck Luftfeuchtigkeit
    00:00 +11°C° 0 mm 1 m/S 705 mmHg 83%
    01:00 +11°C° 0 mm 1 m/S 705 mmHg 83%
    02:00 +10°C° 0 mm 1 m/S 704 mmHg 84%
    03:00 +10°C° 0 mm 1 m/S 704 mmHg 85%
    04:00 +10°C° 0 mm 1 m/S 704 mmHg 85%
    05:00 +9°C° 0 mm 1 m/S 704 mmHg 86%
    06:00 +12°C° 0 mm 1 m/S 705 mmHg 80%
    07:00 +14°C° 0 mm 1 m/S 705 mmHg 74%
    08:00 +16°C° 0 mm 1 m/S 705 mmHg 68%
    09:00 +18°C° 0 mm 2 m/S 706 mmHg 62%
    10:00 +19°C° 0 mm 3 m/S 706 mmHg 57%
    11:00 +21°C° 0 mm 3 m/S 707 mmHg 52%
    12:00 +22°C° 0.1 mm 4 m/S 707 mmHg 50%
    13:00 +23°C° 0.1 mm 4 m/S 706 mmHg 48%
    14:00 +25°C° 0.1 mm 4 m/S 706 mmHg 46%
    15:00 +25°C° 0 mm 4 m/S 706 mmHg 48%
    16:00 +23°C° 0 mm 4 m/S 706 mmHg 49%
    17:00 +23°C° 0 mm 4 m/S 706 mmHg 51%
    18:00 +21°C° 0 mm 4 m/S 706 mmHg 58%
    19:00 +19°C° 0 mm 3 m/S 706 mmHg 64%
    20:00 +17°C° 0 mm 3 m/S 706 mmHg 71%
    21:00 +16°C° 0 mm 2 m/S 706 mmHg 73%
    22:00 +15°C° 0 mm 2 m/S 706 mmHg 74%
    23:00 +15°C° 0 mm 2 m/S 706 mmHg 76%

    übermorgen, 5 Juni, Freitag

    Zeit Temperatur Niederschläge Wind Luftdruck Luftfeuchtigkeit
    00:00 +14°C° 0 mm 2 m/S 706 mmHg 78%
    01:00 +14°C° 0 mm 1 m/S 706 mmHg 80%
    02:00 +13°C° 0 mm 1 m/S 706 mmHg 81%
    03:00 +13°C° 0 mm 1 m/S 706 mmHg 83%
    04:00 +13°C° 0 mm 1 m/S 706 mmHg 84%
    05:00 +12°C° 0 mm 1 m/S 705 mmHg 86%
    06:00 +14°C° 0 mm 1 m/S 706 mmHg 79%
    07:00 +16°C° 0 mm 2 m/S 706 mmHg 73%
    08:00 +18°C° 0 mm 2 m/S 706 mmHg 66%
    09:00 +20°C° 0 mm 2 m/S 706 mmHg 60%
    10:00 +22°C° 0 mm 3 m/S 706 mmHg 54%
    11:00 +25°C° 0 mm 4 m/S 706 mmHg 47%
    12:00 +26°C° 0 mm 4 m/S 706 mmHg 46%
    13:00 +26°C° 0 mm 4 m/S 706 mmHg 44%
    14:00 +27°C° 0 mm 4 m/S 705 mmHg 43%
    15:00 +26°C° 0 mm 4 m/S 705 mmHg 46%
    16:00 +26°C° 0 mm 4 m/S 705 mmHg 50%
    17:00 +25°C° 0 mm 4 m/S 704 mmHg 54%
    18:00 +23°C° 0 mm 4 m/S 704 mmHg 61%
    19:00 +21°C° 0 mm 3 m/S 705 mmHg 68%
    20:00 +19°C° 0 mm 3 m/S 705 mmHg 74%
    21:00 +18°C° 0.1 mm 2 m/S 705 mmHg 75%
    22:00 +19°C° 0.1 mm 1 m/S 705 mmHg 76%
    23:00 +18°C° 0.1 mm 1 m/S 706 mmHg 77%

    6 Juni, Samstag

    Zeit Temperatur Niederschläge Wind Luftdruck Luftfeuchtigkeit
    00:00 +16°C° 0 mm 1 m/S 706 mmHg 78%
    01:00 +16°C° 0 mm 1 m/S 706 mmHg 79%
    02:00 +15°C° 0 mm 1 m/S 706 mmHg 81%
    03:00 +15°C° 0.1 mm 1 m/S 706 mmHg 82%
    04:00 +15°C° 0.1 mm 1 m/S 706 mmHg 83%
    05:00 +15°C° 0.1 mm 1 m/S 706 mmHg 84%
    06:00 +16°C° 0.1 mm 1 m/S 706 mmHg 81%
    07:00 +18°C° 0.1 mm 1 m/S 707 mmHg 78%
    08:00 +19°C° 0.1 mm 1 m/S 707 mmHg 75%
    09:00 +19°C° 0.5 mm 1 m/S 707 mmHg 77%
    10:00 +19°C° 0.5 mm 1 m/S 708 mmHg 79%
    11:00 +19°C° 0.5 mm 1 m/S 708 mmHg 81%
    12:00 +19°C° 0.5 mm 1 m/S 708 mmHg 79%
    13:00 +20°C° 0.5 mm 1 m/S 707 mmHg 77%
    14:00 +20°C° 0.5 mm 1 m/S 707 mmHg 75%
    15:00 +20°C° 0.7 mm 1 m/S 707 mmHg 76%
    16:00 +20°C° 0.7 mm 1 m/S 707 mmHg 76%
    17:00 +19°C° 0.7 mm 2 m/S 706 mmHg 76%
    18:00 +19°C° 0.5 mm 1 m/S 706 mmHg 79%
    19:00 +18°C° 0.5 mm 1 m/S 706 mmHg 83%
    20:00 +16°C° 0.5 mm 1 m/S 706 mmHg 86%
    21:00 +15°C° 0 mm 1 m/S 707 mmHg 87%
    22:00 +14°C° 0 mm 1 m/S 707 mmHg 87%
    23:00 +14°C° 0 mm 1 m/S 707 mmHg 88%

    7 Juni, Sonntag

    Zeit Temperatur Niederschläge Wind Luftdruck Luftfeuchtigkeit
    00:00 +13°C° 0 mm 1 m/S 707 mmHg 89%
    01:00 +13°C° 0 mm 1 m/S 707 mmHg 89%
    02:00 +13°C° 0 mm 1 m/S 707 mmHg 90%
    03:00 +13°C° 0 mm 1 m/S 707 mmHg 90%
    04:00 +12°C° 0 mm 1 m/S 707 mmHg 91%
    05:00 +12°C° 0 mm 1 m/S 707 mmHg 91%
    06:00 +14°C° 0 mm 1 m/S 707 mmHg 87%
    07:00 +16°C° 0 mm 1 m/S 707 mmHg 83%
    08:00 +19°C° 0 mm 1 m/S 708 mmHg 78%
    09:00 +21°C° 0 mm 1 m/S 708 mmHg 71%
    10:00 +23°C° 0 mm 1 m/S 708 mmHg 63%
    11:00 +25°C° 0 mm 1 m/S 709 mmHg 56%
    12:00 +25°C° 0.2 mm 1 m/S 708 mmHg 54%
    13:00 +26°C° 0.2 mm 1 m/S 708 mmHg 52%
    14:00 +27°C° 0.2 mm 1 m/S 708 mmHg 50%
    15:00 +26°C° 0.5 mm 1 m/S 708 mmHg 55%
    16:00 +26°C° 0.5 mm 1 m/S 707 mmHg 60%
    17:00 +25°C° 0.5 mm 1 m/S 707 mmHg 65%
    18:00 +23°C° 0.5 mm 1 m/S 707 mmHg 70%
    19:00 +21°C° 0.5 mm 1 m/S 707 mmHg 75%
    20:00 +17°C° 0.5 mm 0 m/S 707 mmHg 80%
    21:00 +17°C° 0 mm 0 m/S 707 mmHg 81%
    22:00 +16°C° 0 mm 0 m/S 707 mmHg 82%
    23:00 +15°C° 0 mm 0 m/S 708 mmHg 83%

    8 Juni, Montag

    Zeit Temperatur Niederschläge Wind Luftdruck Luftfeuchtigkeit
    00:00 +15°C° 0 mm 0 m/S 708 mmHg 84%
    01:00 +15°C° 0 mm 0 m/S 707 mmHg 84%
    02:00 +14°C° 0 mm 0 m/S 707 mmHg 85%
    03:00 +14°C° 0 mm 0 m/S 707 mmHg 85%
    04:00 +14°C° 0 mm 0 m/S 707 mmHg 85%
    05:00 +13°C° 0 mm 0 m/S 707 mmHg 86%
    06:00 +15°C° 0.1 mm 0 m/S 707 mmHg 83%
    07:00 +17°C° 0.1 mm 0 m/S 707 mmHg 81%
    08:00 +18°C° 0.1 mm 0 m/S 708 mmHg 78%
    09:00 +21°C° 0.5 mm 1 m/S 708 mmHg 74%
    10:00 +23°C° 0.5 mm 1 m/S 708 mmHg 70%
    11:00 +24°C° 0.5 mm 1 m/S 708 mmHg 66%
    12:00 +24°C° 0.7 mm 1 m/S 708 mmHg 65%
    13:00 +24°C° 0.7 mm 1 m/S 708 mmHg 63%
    14:00 +25°C° 0.7 mm 1 m/S 708 mmHg 61%
    15:00 +24°C° 0.6 mm 1 m/S 707 mmHg 63%
    16:00 +24°C° 0.6 mm 1 m/S 707 mmHg 66%
    17:00 +24°C° 0.6 mm 1 m/S 707 mmHg 69%
    18:00 +22°C° 0.2 mm 1 m/S 707 mmHg 73%
    19:00 +18°C° 0.2 mm 0 m/S 707 mmHg 77%
    20:00 +17°C° 0.2 mm 0 m/S 707 mmHg 81%
    21:00 +16°C° 0.1 mm 0 m/S 707 mmHg 82%
    22:00 +16°C° 0.1 mm 0 m/S 707 mmHg 83%
    23:00 +15°C° 0.1 mm 0 m/S 707 mmHg 84%
    Mehr zeigen